Location: Casa Zanolla
(45.9667°N, 11.8167°E)
Time: 16:31:25
(UTC+00:00)

Daily predictions for brighter satellites

Satellite Brightness Start Highest point End
(mag) Time Altitude Azimuth Time Altitude Azimuth Time Altitude Azimuth
H-2A ROCKET BODY 4.3 19:31:48 10° SSW 19:35:34 18° SSE 19:43:37 10° SE
Cosmos 1626 Rocket 3.6 19:34:09 10° S 19:38:35 88° E 19:43:05 10° N
Lacrosse 5 rocket 3.8 19:37:09 10° W 19:40:52 27° NNW 19:44:26 10° NE
Spot 2 Rocket 4.1 19:37:34 10° SE 19:42:22 44° ENE 19:47:13 10° N
ATLAS 5 CENTAUR R/B 4.1 19:40:04 10° WSW 19:43:39 24° NW 19:45:39 10° NNE
Cosmos 1745 Rocket 4.1 19:40:45 10° S 19:46:49 63° E 19:53:01 10° NNE
Landsat 7 4.4 19:43:39 10° SE 19:48:08 44° ENE 19:52:39 10° N
Resurs 1-3 4.3 19:45:58 10° S 19:50:15 54° W 19:54:34 10° NNW
Cosmos 1125 Rocket 3.9 19:46:07 10° NNW 19:51:19 64° WSW 19:56:31 10° S
Meteor 1-21 Rocket 4.4 19:50:01 10° S 19:55:54 77° E 20:01:50 10° NNE
USA 267 4.4 19:50:17 10° E 19:56:20 41° NNE 20:02:23 10° NW
SPOT 1/Viking Rocket 4.1 19:51:39 10° SE 19:56:31 46° ENE 20:01:27 10° N
Cosmos 1953 Rocket 4.5 19:56:26 10° SSE 20:00:11 29° E 20:03:57 10° NNE
Alouette 2 Rocket 4.1 19:57:41 10° N 20:01:22 45° ENE 20:06:10 10° SSE
Cosmos 2322 Rocket 2.8 19:55:56 10° SW 20:01:30 64° WNW 20:07:06 10° NNE
SL-08 ROCKET BODY 4.4 19:56:22 10° S 20:02:18 82° E 20:08:22 10° N
NOSS 7 (D) 3.8 20:00:50 10° SW 20:03:41 86° WNW 20:06:23 10° NE
Cosmos 2237 4.2 19:58:27 10° SSW 20:04:11 80° ESE 20:09:57 10° NNE
Cosmos 1328 4.1 20:02:39 10° S 20:06:28 49° E 20:10:19 10° NNE
SAR-Lupe-2 4.3 20:07:05 10° NNE 20:10:25 35° E 20:13:38 11° SSE
Cosmos 1455 2.3 20:08:41 10° NNW 20:12:32 76° W 20:16:22 10° S
Cosmos 1825 Rocket 3.6 20:11:24 10° S 20:15:47 66° E 20:20:13 10° NNE
ATLAS CENTAUR R/B 2.5 20:15:59 10° NNW 20:19:15 28° NE 20:22:16 11° ESE
Cosmos 1703 3.2 20:16:31 10° S 20:20:23 82° E 20:24:16 10° N
COSMOS 2428 3.4 20:16:22 10° S 20:21:26 35° ESE 20:26:31 10° NE
SL-24 R/B - RUBIN 2 4.4 20:18:18 10° SSW 20:24:13 65° ESE 20:30:45 10° NE
Cosmos 1844 3.8 20:18:51 10° NNW 20:24:40 84° ENE 20:29:32 15° SSE
Cosmos 2322 3.8 20:19:36 10° S 20:25:13 62° ESE 20:30:53 10° NNE
CZ-4B DEB 4.4 20:28:15 17° SSE 20:30:40 68° ENE 20:34:01 10° N
Cosmos 1709 Rocket 4.0 20:25:37 10° S 20:31:53 78° E 20:38:15 10° N
NOSS 3-3 (A) 4.1 20:28:16 10° S 20:33:46 47° ESE 20:39:54 10° NE
NOSS 3-3 (C) 4.2 20:28:23 10° S 20:33:53 46° ESE 20:40:02 10° NE
Terra 2.4 20:31:40 16° SE 20:35:06 44° ENE 20:39:38 10° N
Cosmos 2237 Rocket 3.7 20:33:12 15° SE 20:35:21 18° E 20:39:04 10° ENE
Atlas Centaur 2 3.8 20:31:39 10° SW 20:36:02 20° S 20:38:47 16° SSE
CARTOSAT-1 3.6 20:32:57 17° SSE 20:36:13 68° ENE 20:40:31 10° N
Cosmos 2333 4.2 20:31:24 10° SSW 20:37:01 73° ESE 20:42:43 10° NNE
Cosmos 2219 Rocket 2.4 20:32:02 10° S 20:37:25 51° ESE 20:42:50 10° NE
Cosmos 2360 Rocket 2.8 20:33:49 10° SW 20:39:23 60° WNW 20:45:01 10° NNE
IGS 5A 4.0 20:35:34 11° S 20:39:27 56° W 20:43:34 10° NNW
Cosmos 1538 Rocket 4.3 20:35:06 10° S 20:40:15 50° ESE 20:45:25 10° NNE
Cosmos 2333 Rocket 2.2 20:41:34 10° SSW 20:47:11 66° ESE 20:52:53 10° NNE
Resurs 01 Rocket 3.9 20:48:18 10° SW 20:51:31 20° W 20:54:45 10° NW
Cosmos 1315 Rocket 3.0 20:47:47 10° N 20:51:52 62° ENE 20:54:13 24° SSE
ATLAS 2AS CENTAUR R/B 3.9 20:44:53 10° NNW 20:52:02 39° NE 20:58:38 10° ESE
Cosmos-2242 3.9 20:51:07 10° NNW 20:55:16 45° W 20:59:06 12° SSW
Cosmos 773 Rocket 4.1 20:51:56 10° SSW 20:57:15 79° WNW 21:02:34 10° NNE
Cosmos 2221 3.1 20:56:07 10° N 21:00:20 45° ENE 21:02:29 25° SE
ERS-1 Rocket 3.1 20:56:51 18° S 21:00:40 70° WSW 21:05:44 10° NNW
GEOS 3 Rocket 4.2 20:58:01 10° NNE 21:03:21 64° NW 21:08:40 10° SW
USA 215 3.2 21:00:02 10° NE 21:06:38 79° SE 21:13:10 10° SW
Cosmos 1892 3.7 21:07:02 26° ESE 21:07:58 29° E 21:11:18 10° NNE
Cosmos 2278 Rocket 2.6 21:04:03 10° NNW 21:09:37 53° ENE 21:13:09 22° SE
ATLAS 5 CENTAUR R/B 3.1 21:07:48 10° WSW 21:11:44 38° NW 21:16:12 10° NNE
Cosmos 1844 Rocket 3.9 21:09:14 10° NW 21:14:10 33° WSW 21:18:16 14° SSW
Gblst 52 Del rocket 4.3 21:09:51 10° WNW 21:15:36 86° NNE 21:20:33 18° ESE
SPOT 5 3.4 21:13:56 19° S 21:17:25 56° W 21:22:12 10° NNW
SL-16 R/B 3.9 21:18:55 14° ESE 21:19:45 15° E 21:22:48 10° ENE
Lacrosse 5 rocket 4.2 21:18:20 10° NW 21:21:08 17° N 21:23:51 10° NE
Nadezhda 3 Rocket 4.4 21:19:26 10° N 21:25:41 53° ENE 21:29:11 26° SE
Cosmos 2058 3.2 21:25:00 34° SSE 21:26:23 50° E 21:30:25 10° NNE
Cosmos 2154 Rocket 4.3 21:23:04 26° SSE 21:26:24 51° E 21:32:23 10° NNE
BREEZE M DEB (TANK) 3.5 21:26:30 10° W 21:27:39 20° WSW 21:27:39 20° WSW
Cosmos 1408 3.5 21:29:06 30° ESE 21:29:27 30° E 21:32:38 10° NNE
Meteor 2-17 Rocket 4.4 21:27:26 24° S 21:31:09 71° E 21:37:11 10° NNE
In-Cosmos 22 Rocket 4.1 21:29:55 28° S 21:32:44 68° E 21:38:02 10° NNE
Cosmos 2074 Rocket 4.0 21:29:15 21° S 21:33:41 90° E 21:39:56 10° N
TSX-5 3.7 21:32:43 10° NNW 21:36:14 73° ENE 21:37:36 39° SE
Cosmos 1076 Rocket 3.6 21:36:08 37° SSE 21:37:35 60° E 21:41:49 10° NNE
Cosmos 1680 Rocket 3.7 21:35:42 30° SSE 21:38:03 54° ESE 21:43:14 10° NNE
USA 267 3.3 21:34:05 20° ESE 21:38:55 85° NE 21:45:32 10° NW
Cosmos 2084 4.0 21:42:30 10° NW 21:46:48 47° WSW 21:48:05 36° SSW
Cosmos 1842 Rocket 4.2 21:42:53 10° NNW 21:47:05 48° W 21:49:02 28° SSW
Cosmos 2151 3.9 21:47:18 31° ESE 21:48:05 33° E 21:51:57 10° NNE
Cosmos 923 Rocket 4.0 21:52:20 24° SSW 21:55:33 85° WNW 22:00:54 10° NNE
Cosmos 2327 Rocket 4.4 21:52:14 27° S 21:55:52 89° W 22:02:02 10° N
ATLAS CENTAUR R/B 2.3 21:54:53 10° WNW 21:58:04 28° WSW 21:58:26 28° SW
Cosmos 1825 2.5 21:58:09 45° ESE 21:58:31 47° E 22:02:10 10° NNE
ALOS 2 3.6 21:58:03 28° ESE 21:59:33 36° ENE 22:03:34 10° N
Cosmos 1980 3.6 21:56:55 24° SSW 22:00:26 87° ESE 22:06:08 10° NNE
Cosmos 2369 Rocket 4.4 21:57:47 10° N 22:01:33 18° NE 22:05:20 10° E
Cosmos 1151 Rocket 4.4 21:58:15 10° NNE 22:01:59 27° ENE 22:03:13 24° E
Cosmos 44 3.9 22:05:15 31° ESE 22:05:15 31° ESE 22:08:50 10° NE
COSMOS 2428 3.9 22:00:17 10° SW 22:05:36 41° NW 22:10:59 10° NNE
Cosmos 1295 Rocket 4.4 22:06:31 32° S 22:09:34 84° E 22:15:43 10° N
GP-B 3.9 22:06:20 10° NNE 22:10:29 37° E 22:11:23 33° ESE
NOSS 0 Rocket 4.2 22:07:31 14° SW 22:12:53 69° WNW 22:19:05 10° NNE
Terra 3.6 22:10:34 16° SW 22:13:03 23° W 22:16:49 10° NW
Cosmos 1624 Rocket 4.0 22:09:48 10° NNW 22:15:03 77° ENE 22:16:57 40° SSE
NOSS 3-4 (A) 3.8 22:08:34 10° NW 22:15:36 86° SW 22:19:47 30° SSE
NOSS 3-4 (C) 3.8 22:08:40 10° NW 22:15:42 86° SW 22:19:55 30° SE
Cosmos 2237 Rocket 2.3 22:14:58 22° SW 22:18:44 74° WNW 22:24:28 10° NNE
SL-4 R/B 3.8 22:19:54 10° NE 22:19:54 10° NE 22:19:58 10° NE
Genesis I 3.1 22:18:36 50° SW 22:19:33 86° NW 22:23:28 10° NE
Cosmos 2344 3.5 22:16:02 20° SSW 22:21:28 75° SE 22:29:26 10° NE
Cosmos 2219 Rocket 4.0 22:16:49 10° WSW 22:21:39 29° NW 22:26:30 10° N
Atlas Centaur 2 4.5 22:20:12 10° SW 22:21:21 13° SW 22:21:21 13° SW
Cosmos 1346 Rocket 4.4 22:28:04 21° E 22:28:07 21° E 22:31:06 10° NE
DELTA 2 R/B (1) 3.9 22:25:03 10° WSW 22:36:22 - ESE 22:30:03 42° S
Thor Agena Rocket 3.8 22:25:51 10° N 22:30:55 64° WNW 22:33:18 31° SW
Cosmos 2333 Rocket 4.3 22:27:21 10° WSW 22:31:57 25° NW 22:36:38 10° N
BREEZE-M DEB (TANK) 2.2 22:38:44 10° WNW 22:41:22 46° WNW 22:41:22 46° WNW
Cosmos 1515 Rocket 4.4 22:38:08 10° N 22:42:15 40° ENE 22:43:15 35° ESE
Cosmos 1371 Rocket 4.3 22:37:36 10° NNW 22:42:45 56° WSW 22:44:15 41° SSW
ATLAS 2AS CENTAUR R/B 2.8 22:36:03 10° NW 22:43:30 65° WSW 22:46:25 36° S
EO 1 Del DPAF 4.2 22:40:26 10° N 22:43:59 40° WNW 22:44:59 33° WSW
Cosmos 1766 Rocket 3.4 22:44:24 58° S 22:45:14 89° ESE 22:49:41 10° N
Gbstr 26 Del rocket 4.0 22:49:28 28° E 22:49:28 28° E 22:51:51 10° ENE
Okean 3 Rocket 3.6 22:47:02 51° SSW 22:48:04 75° W 22:52:31 10° N
USA 215 4.3 22:43:11 10° NE 22:49:24 46° NNW 22:55:34 10° W
Cosmos 1328 Rocket 3.4 22:45:22 10° N 22:49:42 80° E 22:50:25 60° SSE
Aureole 2 Rocket 3.1 22:46:58 10° NNW 22:48:59 41° NW 22:48:59 41° NW
Cosmos 1606 2.6 22:48:08 10° NNW 22:52:02 72° W 22:52:19 68° SW
Cosmos 2278 Rocket 3.5 22:48:45 10° NW 22:53:20 26° WSW 22:54:59 22° SW
Cosmos 2218 Rocket 4.0 22:50:54 39° S 22:53:29 81° E 22:59:49 10° N
Cosmos 864 Rocket 4.5 22:52:04 40° S 22:54:30 76° E 23:00:48 10° NNE
Cosmos 2297 3.6 22:49:27 10° NNW 22:55:14 83° WSW 22:57:11 43° SSE
Cosmos 2228 Rocket 4.3 22:53:43 10° N 22:57:55 34° ENE 22:59:19 28° ESE
Cosmos 1420 Rocket 3.9 22:53:43 10° NNW 22:59:01 86° WSW 23:00:36 47° SSE
Cosmos 2366 rocket 4.0 22:56:35 39° S 22:59:10 85° E 23:05:33 10° N
Cosmos 1633 3.2 23:01:11 42° E 23:01:11 42° E 23:04:30 10° NNE
Lacrosse 5 rocket 3.3 22:57:57 10° NW 23:01:24 27° NNE 23:04:42 10° E
Cosmos 1943 Rocket 2.6 22:56:16 10° NNW 23:01:53 57° ENE 23:04:40 29° SE
SL-16 R/B 2.1 23:00:46 38° SSW 23:03:02 86° WNW 23:08:47 10° NNE
Landsat 4 4.3 23:00:22 10° NNE 23:03:59 43° E 23:03:59 43° E
Cosmos 2056 Rocket 4.3 23:01:34 10° NW 23:06:38 41° WSW 23:07:58 35° SW
Cosmos 1959 Rocket 4.4 23:06:20 39° SSW 23:08:48 81° W 23:15:03 10° N
YAOGAN 11 4.1 23:09:09 54° SE 23:10:03 73° ENE 23:14:29 10° N
Cosmos 1743 Rocket 3.8 23:12:36 49° SE 23:13:10 53° E 23:17:25 10° NNE
Cosmos 332 Rocket 3.7 23:15:34 10° NNW 23:20:23 85° WSW 23:21:28 54° SSE
Cosmos 1048 Rocket 4.2 23:19:32 45° SSE 23:20:50 58° ESE 23:26:01 10° NNE
USA 267 4.0 23:21:24 30° SW 23:22:22 31° SW 23:28:07 10° WNW
Meteor 2-3 Rocket 3.7 23:21:02 41° SSW 23:23:02 76° W 23:28:47 10° N
Helios 1A 3.0 23:24:53 58° SW 23:25:18 62° WSW 23:29:28 10° NNW
Cosmos 405 2.9 23:25:40 10° N 23:29:08 84° NNE 23:29:08 84° NNE
Cosmos 1452 Rocket 3.5 23:28:35 10° NNW 23:33:48 65° WSW 23:35:06 48° SSW
Cosmos 1340 3.6 23:34:23 36° W 23:34:49 38° WNW 23:38:22 10° N
CZ-4C R/B 3.4 23:28:03 10° NW 23:35:04 60° NE 23:43:09 10° SE
Meteor 2-6 Rocket 4.3 23:30:19 10° N 23:35:47 65° ENE 23:37:53 37° SE
COSMOS 2455 2.8 23:29:50 10° NW 23:35:54 82° WSW 23:38:24 38° SSE
ALOS 2 4.0 23:35:27 24° WSW 23:35:57 24° W 23:39:33 10° NW
PSLV R/B 3.5 23:31:44 10° NNE 23:35:57 66° ESE 23:36:34 57° SSE
Cosmos 1408 Rocket 4.2 23:35:56 38° WSW 23:36:55 44° WNW 23:41:10 10° N
SL-16 R/B 4.2 23:32:20 10° ESE 23:37:30 29° ENE 23:42:43 10° N
Cosmos 1110 Rocket 4.4 23:32:32 10° NNW 23:37:46 60° ENE 23:40:15 30° SE
Cosmos 1603 4.0 23:36:25 40° SSE 23:38:01 53° ESE 23:43:34 10° NE
Cosmos 1151 Rocket 4.2 23:35:46 10° NNW 23:39:29 28° W 23:40:03 27° WSW
Cosmos 1500 Rocket 3.6 23:44:49 56° SW 23:45:40 73° W 23:50:03 10° N
Cosmos 1727 Rocket 4.2 23:39:37 10° NNW 23:45:43 58° W 23:48:04 37° SSW
Cosmos 44 4.4 23:43:37 19° W 23:46:04 35° NW 23:50:11 10° NNE
Resurs 1-4 Rocket 4.0 23:42:29 10° NE 23:46:20 20° E 23:48:44 15° SE
Cosmos 2369 Rocket 2.1 23:40:48 10° NNW 23:46:26 86° ENE 23:48:49 36° SSE
ISS -1.6 23:51:01 18° E 23:51:01 18° E 23:52:10 10° E
Cosmos 371 Rocket 4.2 23:45:33 10° NW 23:49:53 33° WSW 23:50:25 32° WSW
SeaSat 1 3.7 23:46:03 10° NE 23:50:15 27° ESE 23:51:20 25° SE
Cosmos 1000 Rocket 4.5 23:46:18 10° N 23:52:41 88° W 23:55:26 37° S
Helios 1B rocket 2.3 23:50:35 10° NNE 23:54:44 87° ESE 23:55:23 63° S
